GFSNE_prec_pwat_273.txt.gz
Precipitable_Water
0.98 0.95 0.93 0.94 0.99 1.02 1.03 1.01 0.92 0.76 0.76 0.89 0.93 1.08 1.14 1.20 1.26 1.32 1.34 1.36 1.40 1.38 1.38 1.36 1.36 1.34 1.32 1.29 1.28 1.25 1.22 1.19 1.17 1.09 1.13 1.10 0.96 0.84
1.09 1.03 0.97 0.97 0.98 1.01 1.00 1.00 1.04 0.95 0.82 0.96 0.98 1.08 1.15 1.20 1.25 1.29 1.33 1.35 1.38 1.37 1.36 1.35 1.34 1.35 1.36 1.35 1.32 1.27 1.21 1.14 1.08 1.10 1.07 1.04 0.93 0.84
1.22 1.13 1.05 1.03 1.00 1.00 1.03 1.02 0.99 1.01 0.89 1.00 1.08 1.11 1.12 1.13 1.17 1.22 1.27 1.30 1.35 1.36 1.35 1.33 1.33 1.35 1.34 1.34 1.32 1.28 1.21 1.08 1.11 1.06 1.03 0.96 0.90 0.84
1.26 1.24 1.15 1.15 1.07 1.05 1.04 0.99 0.99 0.99 0.93 0.85 1.01 1.01 1.01 1.08 1.10 1.14 1.18 1.27 1.30 1.35 1.34 1.36 1.33 1.32 1.31 1.30 1.28 1.27 1.20 1.11 1.11 1.06 1.00 0.92 0.89 0.86
1.37 1.36 1.27 1.26 1.20 1.14 1.09 1.04 1.05 1.06 1.05 0.97 0.93 0.98 0.98 1.03 1.01 1.09 1.12 1.18 1.25 1.32 1.33 1.32 1.31 1.30 1.30 1.29 1.28 1.22 1.19 1.20 1.09 1.03 0.99 0.90 0.85 0.85
1.50 1.46 1.37 1.31 1.26 1.24 1.19 1.10 1.07 1.07 1.07 1.03 1.00 0.97 0.97 1.01 1.03 0.99 0.99 1.08 1.14 1.21 1.28 1.32 1.30 1.28 1.26 1.29 1.28 1.21 1.20 1.18 1.09 1.02 0.96 0.85 0.82 0.83
1.55 1.53 1.47 1.41 1.35 1.33 1.30 1.23 1.16 1.06 1.06 1.05 0.98 0.98 0.95 0.94 0.91 0.97 1.00 1.03 1.08 1.15 1.17 1.23 1.23 1.20 1.19 1.23 1.24 1.28 1.18 1.17 1.11 1.04 0.96 0.85 0.82 0.82
1.51 1.51 1.50 1.44 1.40 1.40 1.38 1.34 1.29 1.17 1.10 1.07 1.01 0.94 0.91 0.95 0.99 0.97 0.99 0.97 0.93 1.13 1.17 1.15 1.22 1.16 1.17 1.19 1.27 1.26 1.20 1.19 1.16 1.07 0.96 0.88 0.84 0.78
1.61 1.55 1.52 1.51 1.46 1.41 1.38 1.35 1.34 1.31 1.26 1.22 1.09 1.00 0.99 1.00 1.07 1.07 1.05 1.07 1.09 1.19 1.21 1.10 1.13 1.12 1.16 1.12 1.32 1.29 1.23 1.19 1.14 1.09 0.98 0.89 0.87 0.77
1.75 1.72 1.66 1.58 1.53 1.46 1.41 1.35 1.33 1.32 1.33 1.33 1.32 1.27 1.30 1.33 1.33 1.33 1.30 1.24 1.17 1.22 1.23 1.04 1.11 1.10 1.16 1.14 1.27 1.22 1.24 1.18 1.15 1.10 1.00 0.91 0.89 0.77
1.75 1.81 1.69 1.71 1.60 1.60 1.50 1.36 1.37 1.39 1.49 1.52 1.53 1.57 1.53 1.47 1.48 1.39 1.23 1.15 1.09 1.10 1.19 1.10 1.08 1.07 1.10 1.03 1.18 1.19 1.20 1.20 1.15 1.10 1.02 0.93 0.90 0.78
1.44 1.45 1.71 1.71 1.70 1.65 1.53 1.42 1.37 1.36 1.46 1.48 1.51 1.56 1.58 1.49 1.43 1.45 1.34 1.17 1.11 1.05 1.14 1.13 1.11 1.11 1.00 1.09 1.10 1.16 1.13 1.18 1.14 1.10 1.03 0.95 0.90 0.78
1.41 1.41 1.46 1.62 1.82 1.70 1.63 1.57 1.50 1.54 1.49 1.55 1.57 1.58 1.56 1.47 1.37 1.35 1.37 1.33 1.19 1.17 1.27 1.24 1.12 1.09 1.03 0.94 1.09 1.09 1.09 1.14 1.07 1.06 1.05 0.97 0.93 0.83
1.26 1.36 1.48 1.52 1.52 1.67 1.60 1.58 1.62 1.61 1.64 1.53 1.48 1.42 1.37 1.37 1.33 1.32 1.37 1.37 1.39 1.37 1.32 1.26 1.11 1.06 1.03 0.93 0.91 1.05 1.08 1.11 1.10 1.03 1.02 0.99 0.92 0.86
1.16 1.23 1.36 1.45 1.46 1.46 1.56 1.59 1.53 1.48 1.47 1.50 1.38 1.35 1.38 1.41 1.46 1.41 1.39 1.36 1.29 1.31 1.28 1.21 1.16 1.11 1.04 0.98 0.99 1.00 1.02 0.99 1.03 1.02 1.00 0.96 0.91 0.86
1.04 1.13 1.17 1.32 1.40 1.43 1.45 1.42 1.41 1.39 1.23 1.36 1.44 1.44 1.51 1.48 1.40 1.40 1.31 1.29 1.20 1.22 1.28 1.19 1.12 1.12 1.03 1.02 1.03 0.98 0.95 0.91 0.99 1.01 0.96 0.92 0.88 0.87
0.88 0.94 1.04 1.12 1.17 1.26 1.32 1.35 1.34 1.32 1.23 1.32 1.29 1.28 1.34 1.34 1.42 1.37 1.36 1.23 1.18 1.15 1.12 1.15 1.11 1.12 1.07 1.06 0.97 0.96 0.94 0.94 0.98 0.95 0.91 0.87 0.86 0.87
0.76 0.77 0.85 0.91 0.92 1.00 1.07 1.17 1.17 1.17 1.21 1.23 1.16 1.24 1.23 1.20 1.30 1.28 1.28 1.21 1.13 1.10 1.03 1.03 1.08 1.05 1.01 0.98 1.00 0.90 0.93 0.92 0.91 0.89 0.83 0.78 0.80 0.82
0.65 0.66 0.69 0.79 0.87 0.94 0.99 1.06 1.07 1.11 1.15 1.15 1.18 1.28 1.25 1.18 1.24 1.23 1.19 1.17 1.13 1.10 1.10 1.08 1.02 0.97 0.88 0.83 0.91 0.99 0.90 0.89 0.84 0.85 0.81 0.80 0.77 0.80
0.62 0.61 0.64 0.68 0.73 0.78 0.85 0.92 0.94 1.00 1.07 1.06 1.06 1.15 1.16 1.18 1.16 1.11 1.13 1.11 1.10 1.11 1.06 1.02 0.94 0.94 0.93 0.88 0.84 0.83 0.90 0.85 0.82 0.78 0.78 0.77 0.78 0.76
0.45 0.56 0.61 0.63 0.66 0.71 0.76 0.80 0.83 0.87 0.91 0.97 1.01 1.05 1.06 1.07 1.04 1.06 1.03 1.06 1.04 1.02 0.96 0.93 0.95 0.97 0.92 0.89 0.77 0.73 0.79 0.86 0.84 0.75 0.71 0.66 0.63 0.64
0.37 0.39 0.47 0.57 0.61 0.63 0.68 0.71 0.74 0.77 0.79 0.80 0.84 0.91 0.96 0.96 0.92 0.93 0.91 0.91 0.92 0.90 0.88 0.88 0.87 0.85 0.81 0.78 0.70 0.71 0.69 0.75 0.76 0.73 0.70 0.68 0.64 0.59
0.33 0.35 0.37 0.39 0.46 0.58 0.63 0.64 0.67 0.69 0.71 0.73 0.76 0.78 0.80 0.79 0.82 0.81 0.79 0.79 0.77 0.75 0.75 0.73 0.74 0.73 0.71 0.68 0.66 0.66 0.66 0.65 0.64 0.62 0.63 0.69 0.70 0.69

GFSNE_prec_pwat_279.txt.gz
Precipitable_Water
1.13 1.00 0.94 0.96 1.01 0.99 0.99 0.97 0.88 0.74 0.75 0.89 0.88 1.05 1.13 1.21 1.24 1.28 1.28 1.29 1.30 1.34 1.41 1.44 1.43 1.43 1.41 1.39 1.39 1.41 1.38 1.38 1.34 1.32 1.26 1.20 1.15 1.10
1.36 1.19 1.06 1.01 1.01 1.03 1.01 1.01 1.00 0.89 0.77 0.92 0.97 1.04 1.09 1.11 1.17 1.21 1.25 1.27 1.26 1.29 1.33 1.37 1.39 1.39 1.39 1.38 1.41 1.41 1.37 1.37 1.35 1.30 1.28 1.21 1.16 1.07
1.53 1.41 1.27 1.15 1.10 1.10 1.09 1.09 1.05 1.03 0.88 0.84 1.00 1.10 1.07 1.06 1.09 1.15 1.19 1.20 1.22 1.24 1.28 1.32 1.34 1.34 1.34 1.35 1.37 1.38 1.37 1.36 1.34 1.30 1.26 1.21 1.17 1.09
1.55 1.53 1.43 1.44 1.32 1.24 1.18 1.13 1.14 1.17 1.09 0.94 1.03 1.03 1.00 1.05 1.09 1.09 1.10 1.16 1.15 1.15 1.19 1.22 1.26 1.27 1.28 1.29 1.32 1.35 1.36 1.36 1.32 1.28 1.24 1.21 1.19 1.13
1.56 1.59 1.56 1.51 1.42 1.40 1.36 1.27 1.25 1.25 1.27 1.17 1.10 1.26 1.20 1.11 1.06 1.07 1.08 1.09 1.14 1.15 1.15 1.16 1.19 1.20 1.22 1.26 1.27 1.31 1.34 1.36 1.32 1.26 1.25 1.22 1.20 1.14
1.55 1.58 1.56 1.60 1.57 1.47 1.42 1.40 1.42 1.37 1.35 1.30 1.22 1.26 1.27 1.25 1.21 1.08 1.00 1.05 1.03 1.13 1.15 1.17 1.19 1.19 1.20 1.24 1.24 1.27 1.30 1.32 1.33 1.28 1.24 1.21 1.19 1.14
1.41 1.47 1.46 1.58 1.53 1.51 1.58 1.51 1.48 1.44 1.39 1.33 1.28 1.28 1.26 1.17 1.14 1.19 1.13 1.10 1.11 1.12 1.09 1.10 1.12 1.14 1.16 1.18 1.19 1.21 1.27 1.30 1.32 1.28 1.24 1.20 1.16 1.16
1.05 1.23 1.30 1.30 1.35 1.43 1.53 1.38 1.43 1.49 1.37 1.33 1.35 1.31 1.33 1.27 1.30 1.26 1.21 1.12 1.01 1.17 1.10 1.02 1.12 1.07 1.12 1.13 1.15 1.19 1.26 1.29 1.29 1.26 1.22 1.17 1.15 1.16
0.92 1.01 1.10 1.22 1.27 1.26 1.30 1.30 1.38 1.47 1.49 1.39 1.29 1.33 1.37 1.41 1.37 1.26 1.22 1.22 1.18 1.21 1.19 1.02 1.06 1.03 1.10 1.09 1.13 1.20 1.24 1.28 1.29 1.27 1.23 1.17 1.14 1.11
0.85 0.94 0.99 1.09 1.15 1.21 1.21 1.26 1.23 1.30 1.33 1.36 1.39 1.43 1.52 1.57 1.51 1.37 1.34 1.37 1.38 1.31 1.21 0.99 1.06 0.99 1.07 1.09 1.17 1.22 1.28 1.28 1.27 1.28 1.22 1.16 1.14 1.11
0.78 0.83 0.86 0.93 1.07 1.15 1.22 1.19 1.18 1.22 1.28 1.35 1.35 1.46 1.63 1.63 1.62 1.49 1.27 1.25 1.17 1.16 1.20 1.10 1.05 1.00 1.03 1.10 1.22 1.26 1.27 1.28 1.26 1.25 1.25 1.20 1.16 1.12
0.78 0.77 0.84 0.87 0.91 1.01 0.98 1.04 1.07 1.09 1.15 1.23 1.33 1.41 1.53 1.53 1.62 1.60 1.44 1.25 1.26 1.15 1.21 1.09 1.04 1.03 0.98 1.16 1.23 1.24 1.25 1.25 1.25 1.24 1.24 1.25 1.19 1.11
0.68 0.73 0.78 0.82 0.87 0.92 0.94 0.89 0.89 1.06 1.09 1.17 1.21 1.23 1.27 1.35 1.46 1.46 1.59 1.47 1.32 1.24 1.31 1.22 1.11 1.17 1.18 1.13 1.14 1.21 1.25 1.28 1.26 1.24 1.25 1.23 1.20 1.14
0.60 0.69 0.71 0.76 0.80 0.88 0.95 0.98 0.99 0.99 1.04 1.09 1.14 1.16 1.14 1.20 1.36 1.40 1.47 1.58 1.60 1.51 1.45 1.39 1.29 1.29 1.25 1.16 1.14 1.20 1.22 1.23 1.23 1.24 1.22 1.18 1.14 1.12
0.58 0.58 0.65 0.69 0.76 0.83 0.90 0.95 0.97 0.99 0.98 1.00 1.03 1.14 1.26 1.36 1.38 1.36 1.37 1.55 1.51 1.50 1.51 1.44 1.40 1.39 1.36 1.23 1.19 1.18 1.16 1.19 1.23 1.24 1.21 1.15 1.11 1.08
0.52 0.61 0.62 0.65 0.69 0.75 0.82 0.87 0.92 0.92 0.91 0.96 0.98 1.09 1.13 1.25 1.32 1.37 1.33 1.33 1.30 1.35 1.41 1.48 1.43 1.41 1.33 1.29 1.25 1.22 1.21 1.20 1.30 1.25 1.24 1.18 1.10 1.10
0.44 0.48 0.56 0.61 0.61 0.66 0.73 0.80 0.86 0.86 0.86 0.88 0.88 0.92 1.00 1.11 1.18 1.26 1.29 1.27 1.23 1.22 1.25 1.35 1.41 1.42 1.39 1.32 1.21 1.21 1.19 1.17 1.27 1.24 1.20 1.14 1.09 1.13
0.38 0.39 0.41 0.47 0.55 0.61 0.65 0.69 0.77 0.81 0.81 0.82 0.83 0.86 0.92 0.96 1.06 1.25 1.27 1.23 1.16 1.18 1.23 1.26 1.26 1.21 1.22 1.20 1.22 1.15 1.17 1.17 1.23 1.18 1.15 1.05 0.98 1.03
0.32 0.35 0.36 0.38 0.41 0.48 0.59 0.64 0.66 0.71 0.77 0.77 0.78 0.78 0.87 0.94 1.00 1.06 1.10 1.11 1.13 1.14 1.18 1.21 1.19 1.16 1.05 1.02 1.18 1.26 1.12 1.14 1.16 1.14 1.12 1.07 1.05 1.02
0.32 0.31 0.32 0.35 0.36 0.38 0.42 0.51 0.61 0.67 0.67 0.68 0.70 0.71 0.79 0.82 0.88 1.00 0.99 1.00 1.05 1.07 1.06 1.12 1.10 1.14 1.09 1.08 1.10 1.13 1.20 1.11 1.10 1.08 1.06 1.06 1.04 1.04
0.30 0.30 0.32 0.32 0.34 0.36 0.37 0.39 0.43 0.55 0.62 0.64 0.67 0.69 0.70 0.72 0.77 0.90 0.94 0.96 1.00 1.00 0.96 0.96 1.04 1.12 1.10 1.07 0.98 1.03 1.13 1.16 1.11 1.06 1.04 0.99 0.93 0.90
0.31 0.31 0.32 0.33 0.33 0.34 0.35 0.36 0.37 0.40 0.44 0.57 0.62 0.66 0.68 0.71 0.67 0.74 0.87 0.88 0.88 0.91 0.94 0.97 1.00 0.99 0.99 0.94 0.90 0.93 0.97 1.01 1.00 0.98 0.98 0.96 0.88 0.79
0.31 0.32 0.32 0.33 0.33 0.33 0.34 0.33 0.34 0.35 0.38 0.40 0.48 0.59 0.63 0.67 0.73 0.76 0.77 0.82 0.81 0.81 0.86 0.87 0.88 0.92 0.86 0.98 0.89 0.85 0.86 0.90 0.91 0.83 0.82 0.87 0.82 0.81

GFSNE_prec_pwat_285.txt.gz
Precipitable_Water
1.50 1.52 1.53 1.51 1.47 1.38 1.25 1.08 0.89 0.74 0.78 0.89 0.95 1.22 1.26 1.26 1.24 1.24 1.17 1.13 1.10 1.10 1.16 1.20 1.22 1.24 1.26 1.28 1.31 1.31 1.32 1.33 1.33 1.34 1.35 1.36 1.36 1.34
1.54 1.45 1.47 1.54 1.50 1.52 1.50 1.40 1.21 1.00 0.81 0.89 0.94 1.10 1.27 1.27 1.28 1.26 1.24 1.17 1.10 1.06 1.04 1.06 1.12 1.18 1.22 1.24 1.26 1.29 1.30 1.32 1.32 1.32 1.33 1.34 1.34 1.35
1.56 1.50 1.41 1.45 1.49 1.49 1.45 1.43 1.41 1.31 1.05 0.96 1.02 0.99 0.97 1.16 1.24 1.28 1.26 1.23 1.19 1.10 1.07 1.06 1.04 1.07 1.13 1.17 1.20 1.23 1.28 1.30 1.30 1.31 1.29 1.30 1.31 1.33
1.28 1.40 1.46 1.45 1.42 1.48 1.42 1.40 1.38 1.48 1.33 1.18 1.14 1.11 1.06 1.02 1.13 1.28 1.22 1.26 1.25 1.24 1.20 1.18 1.14 1.11 1.10 1.11 1.14 1.16 1.20 1.24 1.25 1.26 1.26 1.26 1.27 1.30
1.12 1.18 1.18 1.30 1.53 1.51 1.50 1.46 1.45 1.42 1.46 1.50 1.33 1.37 1.30 1.24 1.20 1.26 1.31 1.35 1.37 1.36 1.33 1.30 1.30 1.29 1.21 1.13 1.14 1.15 1.16 1.18 1.21 1.22 1.21 1.23 1.24 1.26
0.98 1.04 1.13 1.16 1.20 1.28 1.52 1.45 1.47 1.47 1.36 1.44 1.40 1.41 1.47 1.46 1.42 1.35 1.33 1.43 1.38 1.42 1.40 1.38 1.38 1.37 1.36 1.30 1.20 1.16 1.16 1.14 1.17 1.20 1.22 1.21 1.23 1.24
0.76 0.90 1.07 1.09 1.21 1.20 1.20 1.20 1.29 1.20 1.18 1.24 1.28 1.27 1.33 1.38 1.35 1.44 1.42 1.42 1.44 1.46 1.38 1.34 1.32 1.33 1.37 1.39 1.34 1.27 1.24 1.18 1.14 1.16 1.22 1.23 1.22 1.23
0.65 0.70 0.79 0.92 1.03 1.13 1.20 1.22 1.28 1.18 1.23 1.23 1.16 1.11 1.13 1.26 1.26 1.27 1.26 1.22 1.17 1.42 1.34 1.28 1.35 1.28 1.29 1.36 1.39 1.39 1.35 1.33 1.29 1.21 1.18 1.21 1.23 1.22
0.63 0.64 0.66 0.74 0.83 0.88 0.95 1.09 1.11 1.21 1.25 1.23 1.13 1.15 1.12 1.10 1.19 1.22 1.19 1.13 1.09 1.28 1.35 1.22 1.31 1.22 1.33 1.40 1.42 1.40 1.38 1.36 1.37 1.34 1.29 1.21 1.20 1.23
0.53 0.59 0.62 0.65 0.70 0.72 0.73 0.80 0.94 1.02 1.09 1.15 1.14 1.36 1.25 1.19 1.16 1.08 1.11 1.17 1.32 1.35 1.42 1.15 1.27 1.17 1.25 1.35 1.45 1.44 1.41 1.38 1.38 1.38 1.34 1.29 1.21 1.19
0.40 0.44 0.53 0.60 0.64 0.63 0.62 0.65 0.70 0.78 0.95 1.02 1.07 1.11 1.18 1.23 1.24 1.25 1.14 1.06 0.95 1.07 1.30 1.25 1.18 1.25 1.22 1.20 1.37 1.46 1.45 1.41 1.40 1.40 1.38 1.33 1.25 1.20
0.33 0.38 0.42 0.46 0.52 0.59 0.57 0.59 0.60 0.66 0.72 0.79 0.93 0.95 1.11 1.24 1.20 1.20 1.13 0.99 0.97 0.94 1.09 1.09 1.07 1.09 1.02 1.16 1.22 1.36 1.37 1.39 1.41 1.42 1.37 1.34 1.32 1.24
0.30 0.31 0.36 0.38 0.39 0.43 0.52 0.58 0.60 0.64 0.68 0.70 0.72 0.83 0.99 1.01 1.08 1.17 1.19 1.10 0.95 0.96 1.15 1.18 1.05 1.03 1.05 1.07 1.17 1.29 1.28 1.33 1.34 1.35 1.35 1.34 1.33 1.27
0.29 0.32 0.33 0.34 0.35 0.37 0.42 0.51 0.59 0.63 0.64 0.67 0.68 0.69 0.76 0.83 0.96 1.06 1.11 1.16 1.19 1.11 1.25 1.20 1.02 1.02 0.98 0.97 0.98 1.15 1.22 1.29 1.35 1.32 1.32 1.35 1.33 1.34
0.32 0.32 0.32 0.32 0.34 0.36 0.38 0.41 0.48 0.57 0.60 0.59 0.61 0.68 0.70 0.75 0.79 0.84 0.94 1.09 1.19 1.14 1.18 1.16 1.08 1.07 1.05 0.97 1.01 1.01 0.98 1.04 1.20 1.24 1.24 1.24 1.27 1.35
0.31 0.30 0.31 0.31 0.33 0.34 0.36 0.38 0.41 0.45 0.52 0.56 0.58 0.63 0.69 0.73 0.71 0.77 0.82 0.86 0.89 0.93 1.13 1.16 1.13 1.14 1.04 1.02 1.03 0.97 0.99 1.00 1.14 1.16 1.20 1.25 1.27 1.32
0.28 0.29 0.29 0.30 0.30 0.31 0.32 0.35 0.37 0.40 0.40 0.47 0.52 0.56 0.58 0.60 0.64 0.72 0.74 0.78 0.79 0.78 0.87 0.98 1.11 1.14 1.11 1.06 0.94 0.91 0.96 1.02 1.11 1.15 1.17 1.16 1.22 1.29
0.26 0.25 0.26 0.28 0.28 0.30 0.30 0.31 0.35 0.36 0.39 0.40 0.41 0.48 0.54 0.58 0.60 0.66 0.68 0.66 0.67 0.78 0.91 0.87 0.95 0.96 0.98 0.97 1.00 0.90 0.93 0.93 1.01 1.04 1.05 1.03 1.07 1.21
0.25 0.26 0.27 0.28 0.29 0.30 0.31 0.31 0.31 0.35 0.37 0.37 0.38 0.39 0.43 0.52 0.58 0.58 0.60 0.62 0.65 0.69 0.76 0.83 0.83 0.92 0.80 0.74 0.89 1.01 0.94 0.93 0.92 0.94 0.99 0.99 1.01 1.10
0.29 0.27 0.26 0.28 0.29 0.29 0.30 0.31 0.32 0.33 0.35 0.35 0.35 0.37 0.39 0.40 0.47 0.53 0.58 0.56 0.57 0.59 0.65 0.75 0.77 0.86 0.80 0.75 0.81 0.86 0.94 0.92 0.90 0.91 0.92 0.99 1.04 1.11
0.28 0.28 0.29 0.29 0.30 0.31 0.31 0.31 0.32 0.32 0.33 0.34 0.34 0.34 0.36 0.37 0.37 0.43 0.51 0.57 0.56 0.58 0.62 0.72 0.81 0.89 0.87 0.84 0.73 0.80 0.85 0.93 0.92 0.90 0.92 0.90 0.91 0.95
0.29 0.29 0.30 0.30 0.30 0.31 0.32 0.32 0.31 0.31 0.32 0.33 0.34 0.34 0.35 0.35 0.35 0.36 0.39 0.45 0.54 0.55 0.59 0.69 0.77 0.81 0.80 0.76 0.72 0.75 0.77 0.84 0.84 0.88 0.93 0.97 0.87 0.80
0.29 0.29 0.29 0.30 0.31 0.32 0.32 0.32 0.31 0.31 0.32 0.32 0.33 0.34 0.34 0.33 0.35 0.36 0.36 0.39 0.43 0.53 0.59 0.65 0.69 0.73 0.72 0.72 0.67 0.69 0.73 0.75 0.79 0.77 0.78 0.87 0.90 0.92

GFSNE_prec_pwat_291.txt.gz
Precipitable_Water
1.09 1.10 1.17 1.25 1.31 1.32 1.35 1.34 1.25 1.15 1.08 1.06 0.93 1.05 1.07 1.11 1.18 1.24 1.23 1.20 1.20 1.17 1.20 1.21 1.22 1.25 1.27 1.30 1.31 1.31 1.31 1.30 1.29 1.30 1.32 1.31 1.32 1.32
0.89 0.94 1.08 1.15 1.18 1.33 1.20 1.29 1.28 1.23 1.14 1.30 1.12 1.09 1.13 1.20 1.22 1.20 1.21 1.20 1.17 1.19 1.22 1.24 1.21 1.17 1.15 1.17 1.19 1.23 1.28 1.29 1.29 1.28 1.29 1.30 1.30 1.32
0.67 0.80 0.92 1.07 1.07 1.15 1.24 1.25 1.21 1.17 1.14 1.27 1.41 1.46 1.36 1.30 1.26 1.36 1.45 1.43 1.42 1.40 1.31 1.25 1.21 1.19 1.19 1.18 1.17 1.17 1.16 1.20 1.23 1.25 1.26 1.28 1.29 1.30
0.56 0.64 0.71 0.83 0.94 1.07 1.14 1.14 1.18 1.27 1.21 1.24 1.40 1.46 1.41 1.48 1.45 1.42 1.40 1.45 1.47 1.50 1.45 1.41 1.33 1.32 1.28 1.22 1.21 1.23 1.22 1.19 1.20 1.21 1.22 1.26 1.27 1.28
0.45 0.54 0.62 0.67 0.70 0.81 0.95 1.01 1.07 1.09 1.14 1.15 1.20 1.37 1.40 1.48 1.48 1.52 1.53 1.55 1.52 1.49 1.46 1.44 1.44 1.44 1.40 1.33 1.28 1.27 1.28 1.30 1.32 1.29 1.23 1.20 1.22 1.24
0.39 0.45 0.49 0.54 0.64 0.67 0.73 0.81 0.89 0.91 1.00 1.02 1.10 1.12 1.18 1.31 1.32 1.29 1.35 1.45 1.46 1.61 1.52 1.50 1.49 1.47 1.49 1.41 1.38 1.36 1.34 1.33 1.34 1.36 1.40 1.40 1.35 1.29
0.30 0.36 0.41 0.46 0.52 0.55 0.60 0.65 0.70 0.69 0.77 0.86 0.89 0.95 0.98 1.06 1.13 1.20 1.18 1.24 1.28 1.31 1.27 1.33 1.35 1.33 1.37 1.39 1.57 1.50 1.40 1.37 1.35 1.38 1.41 1.38 1.40 1.44
0.27 0.31 0.31 0.34 0.38 0.41 0.43 0.49 0.58 0.59 0.60 0.65 0.75 0.85 0.91 0.99 1.04 1.18 1.19 1.14 1.05 1.24 1.17 1.08 1.23 1.20 1.28 1.34 1.47 1.45 1.46 1.43 1.41 1.42 1.41 1.36 1.38 1.37
0.28 0.29 0.28 0.32 0.32 0.32 0.32 0.35 0.39 0.45 0.54 0.59 0.61 0.71 0.79 0.92 1.04 1.03 1.09 1.19 1.14 1.20 1.15 1.04 1.13 1.09 1.29 1.34 1.36 1.39 1.42 1.39 1.43 1.38 1.40 1.36 1.36 1.39
0.25 0.27 0.27 0.29 0.32 0.30 0.27 0.26 0.28 0.33 0.39 0.46 0.57 0.65 0.69 0.74 0.91 0.91 1.01 1.05 1.16 1.21 1.26 1.03 1.15 1.06 1.11 1.21 1.31 1.32 1.32 1.29 1.35 1.38 1.36 1.33 1.33 1.32
0.20 0.23 0.25 0.27 0.30 0.29 0.27 0.25 0.24 0.26 0.34 0.38 0.42 0.48 0.60 0.67 0.74 0.79 0.78 0.82 0.84 0.99 1.27 1.13 1.11 1.03 1.10 1.06 1.16 1.25 1.25 1.19 1.28 1.35 1.33 1.32 1.35 1.37
0.21 0.23 0.23 0.23 0.24 0.27 0.27 0.25 0.22 0.25 0.28 0.29 0.31 0.37 0.44 0.58 0.67 0.71 0.72 0.66 0.74 0.74 1.00 1.02 1.03 1.10 0.99 1.07 1.09 1.13 1.18 1.18 1.23 1.31 1.35 1.32 1.33 1.34
0.19 0.20 0.21 0.22 0.22 0.23 0.25 0.25 0.26 0.28 0.28 0.29 0.30 0.33 0.38 0.42 0.50 0.62 0.67 0.66 0.62 0.63 0.81 0.87 0.86 0.98 1.00 0.88 0.94 1.02 1.10 1.13 1.12 1.18 1.23 1.25 1.31 1.30
0.17 0.19 0.21 0.21 0.22 0.22 0.22 0.24 0.27 0.29 0.29 0.28 0.29 0.29 0.31 0.33 0.38 0.46 0.59 0.66 0.69 0.65 0.71 0.79 0.72 0.77 0.80 0.80 0.77 0.90 1.04 1.01 1.04 1.03 1.07 1.13 1.25 1.22
0.20 0.21 0.21 0.20 0.20 0.21 0.23 0.24 0.26 0.27 0.27 0.26 0.26 0.27 0.31 0.35 0.36 0.36 0.42 0.54 0.60 0.66 0.69 0.72 0.74 0.75 0.77 0.73 0.73 0.79 0.83 0.85 0.93 1.00 1.03 1.02 1.06 1.09
0.22 0.21 0.21 0.21 0.21 0.22 0.22 0.25 0.26 0.27 0.27 0.26 0.27 0.30 0.32 0.32 0.32 0.34 0.32 0.35 0.41 0.47 0.61 0.69 0.69 0.67 0.64 0.68 0.75 0.75 0.83 0.80 0.82 0.89 0.97 0.96 0.99 1.00
0.23 0.22 0.21 0.20 0.19 0.20 0.21 0.24 0.26 0.26 0.26 0.27 0.28 0.28 0.29 0.30 0.31 0.33 0.32 0.31 0.29 0.33 0.39 0.52 0.64 0.66 0.65 0.64 0.60 0.67 0.73 0.81 0.90 0.85 0.83 0.79 0.82 0.89
0.25 0.22 0.20 0.20 0.20 0.21 0.21 0.22 0.25 0.26 0.27 0.28 0.28 0.28 0.28 0.29 0.29 0.31 0.32 0.30 0.28 0.29 0.31 0.37 0.44 0.53 0.59 0.60 0.67 0.62 0.66 0.72 0.80 0.85 0.86 0.76 0.77 0.80
0.24 0.22 0.21 0.22 0.22 0.23 0.23 0.24 0.24 0.27 0.29 0.29 0.28 0.28 0.28 0.29 0.29 0.29 0.30 0.29 0.28 0.29 0.30 0.33 0.35 0.37 0.40 0.43 0.55 0.66 0.59 0.63 0.67 0.71 0.76 0.73 0.72 0.79
0.26 0.23 0.21 0.22 0.23 0.23 0.24 0.25 0.26 0.28 0.29 0.29 0.29 0.28 0.28 0.28 0.28 0.28 0.29 0.28 0.28 0.28 0.28 0.30 0.32 0.34 0.34 0.37 0.42 0.52 0.66 0.60 0.60 0.58 0.63 0.72 0.78 0.80
0.22 0.22 0.23 0.23 0.24 0.25 0.26 0.27 0.27 0.27 0.28 0.29 0.29 0.29 0.28 0.28 0.27 0.28 0.28 0.28 0.28 0.28 0.26 0.28 0.31 0.36 0.38 0.41 0.39 0.44 0.57 0.66 0.65 0.61 0.61 0.61 0.60 0.62
0.21 0.23 0.24 0.25 0.25 0.26 0.27 0.28 0.28 0.28 0.28 0.29 0.29 0.29 0.29 0.29 0.27 0.27 0.28 0.27 0.27 0.27 0.28 0.30 0.32 0.33 0.33 0.32 0.31 0.36 0.46 0.61 0.65 0.64 0.65 0.63 0.57 0.51
0.23 0.25 0.23 0.22 0.25 0.27 0.28 0.30 0.30 0.30 0.29 0.29 0.30 0.30 0.29 0.27 0.28 0.28 0.28 0.28 0.29 0.28 0.28 0.28 0.29 0.31 0.30 0.30 0.31 0.33 0.38 0.50 0.57 0.56 0.60 0.64 0.64 0.64